Regional Weather Roundup
Issued by NWS Charleston, SC

Current Version | Previous Version | Graphics & Text | Print | Product List | Glossary On
Versions: 1 2 3 4 5 6 7 8 9 10 11 12 13 14 15 16 17 18 19 20 21 22 23 24 25 26 27 28 29 30 31 32 33 34 35 36 37 38 39 40 41 42 43 44 45 46 47 48 49 50
000
ASUS42 KCHS 262228
RWRCHS

Regional Weather Roundup
National Weather Service Charleston SC
600 PM EDT THU APR 26 2018

NOTE: "fair" indicates few or no clouds below 12,000 feet with no
significant weather and/or obstructions to visibility.

Not all stations are quality controlled. Use data with caution,
especially dewpoint observations.

SCZ027-030-031-034>040-042>050-262300-
...Southeast South Carolina...

CITY           SKY/WX    TMP DP  RH WIND       PRES   REMARKS
N Charleston   PTSUNNY   74  58  57 S13       29.83S
Waterfront Prk NOT AVBL
Mount Pleasant FAIR      72  59  64 S10       29.83F
Johns Island   FAIR      70  59  68 S9        29.83F
Pinopolis        N/A    N/A N/A N/A W7        29.75R
Moncks Corner  MOCLDY    73  55  53 S9        29.82S
Summerville    FAIR      75  59  57 S5        29.83S
Beaufort MCAS  FAIR      73  64  73 S6        29.83S
Beaufort Arpt  FAIR      72  59  64 SW9       29.83S
Hilton Head Is MOSUNNY   72  61  68 S7G14     29.84F
Walterboro     FAIR      75  54  46 W8        29.83S
Allendale      FAIR      72  52  49 CALM      29.82F

...Southern Midlands and Pee Dee...

CITY           SKY/WX    TMP DP  RH WIND       PRES   REMARKS
Georgetown     FAIR      68  55  64 S9        29.84S
Kingstree      FAIR      75  54  46 SW5       29.81F
Orangeburg     FAIR      75  54  47 SW10      29.83S
Barnwell       FAIR      70  52  52 W7        29.83F
Aiken          CLOUDY    68  54  60 W8        29.87F
Manning        FAIR      72  52  49 W7        29.81F
Columbia       PTSUNNY   74  56  53 W10       29.81F
Sumter         CLOUDY    74  55  51 SW9       29.80R
Florence       FAIR      77  56  48 S8        29.80S
Myrtle Beach   FAIR      69  61  75 S13       29.84S
N Myrtle Beach FAIR      69  62  78 S9        29.83S

$$

GAZ063-065-086>088-099>101-113>116-118-119-134>141-150-262300-
...Southeast Georgia...

CITY           SKY/WX    TMP DP  RH WIND       PRES   REMARKS
Savannah Arpt  PTSUNNY   76  60  57 SE13      29.81F
Hunter AAF     FAIR      74  60  63 S8        29.80S
Fort Stewart   PTSUNNY   81  54  39 W5        29.78F
Statesboro     FAIR      75  49  39 N3        29.81F
Sylvania       FAIR      73  58  60 CALM      29.82F
Claxton        FAIR      78  57  48 CALM      29.80F

...CSRA, Central and far Southeast Georgia...

CITY           SKY/WX    TMP DP  RH WIND       PRES   REMARKS
Thomson        RAIN      62  59  91 NE6       29.91R
Augusta-Bush   CLOUDY    70  53  54 NW7       29.83F
Augusta-Daniel CLOUDY    70  54  56 W5        29.85F
Swainsboro     FAIR      72  54  53 CALM      29.81F
Vidalia        FAIR      75  52  43 CALM      29.80F
Eastman        MOCLDY    73  44  35 S3        29.81F
Hazlehurst     FAIR      77  50  38 CALM      29.79S
Alma           FAIR      79  51  37 S5        29.80F
Waycross       PTSUNNY   81  48  31 SW9       29.80S
Jesup          NOT AVBL
Baxley         FAIR      77  52  41 SW7       29.79F
Brunswick      FAIR      73  61  64 SE12      29.82F
Saint Simons   FAIR      74  65  73 S10G20    29.82F

$$

SCZ027-028-034-036>038-045-046-048>050-GAZ119-141-262300-
...Lake and Supplemental Coastal Observations...

STATION/POSITION TIME  TEMP    WIND        PRES    WAVE   SWELL
                       AIR SEA DIR/SP/G            HT/PER HT/PER/DIR
                 (UTC) (F)     (DEG/KT/KT) (MB)    (FT/S) (FT/S/D)
Winyah Bay       2145   70     190/ 15     1010.0S
Lake Murray      2120   71     230/  5/  7 1009.1R
ACE Basin NERRS  2145   71     350/  2       N/A
Fort Pulaski     2200   71 67  180/  5/  8 1010.4
Sapelo Island    2200   74     160/ 11     1010.0

$$

ANZ835-935-AMZ111-154-330-350-352-354-370-450-454-472-262300-
...C-MAN and Buoy Observations...

STATION/POSITION TIME  TEMP    WIND        PRES    WAVE   SWELL
                       AIR SEA DIR/SP/G            HT/PER HT/PER/DIR
                 (UTC) (F)     (DEG/KT/KT) (MB)    (FT/S) (FT/S/D)
Buoy 41004       2210      70  230/  8/ 10 1010.7
Buoy 41008       2150   68 67  170/ 10/ 12 1009.7F   2/ 8   2/110/ 8
Folly Beach CMAN 2200   68     190/ 10/ 11 1011.1F
Capers Nearshore 2208   67 67  220/ 10/ 14 1010.8S
Fripp Nearshore  2208   67 67  180/ 10/ 14 1009.6F


STATION/POSITION TIME  TEMP    WIND        PRES    WAVE   SWELL
                       AIR SEA DIR/SP/G            HT/PER HT/PER/DIR
                 (UTC) (F)     (DEG/KT/KT) (MB)    (FT/S) (FT/S/D)
5E St. Marys GA  2200      70                N/A     3/ 9
Frying Pan Buoy  2210   72 71  210/ 10/ 12 1010.9
Buoy 41025       2210   72 71  170/ 10/ 14 1011.9
Cape Lookout NC  2200          160/  6/  8 1011.3F
Buoy 41002       2210   73 74  210/ 10/ 12 1013.1
Buoy 41010       2210   75 76  210/ 16/ 19 1012.1
St Augustine FL  2200   71 71  160/ 12/ 13 1010.5F


$$



USA.gov is the U.S. government's official web portal to all federal, state and local government web resources and services.